www.pogodaiklimat.ru

Погода и климат >> Архив погоды >> Россия >> Ямало-Ненецкий АО >> Салехард


АРХИВ ПОГОДЫ в Салехарде

Время (UTC), дата Ветер
(напр.,м/с)
 
Видим.   Явления Облачность Т
(С)
Тd
(С)
f
(%)
Тe
(С)
Тes
(С)
Комфортность P
(гПа)
Po
(гПа)
Тmin
(С)
Tmax
(С)
R
(мм)
R24
(мм)
S
(см)
09 18.02 штиль 0 20 км 8/0
[Ac trans]
-12.9 -14.9 85 -13 -12 тепло 1014.7 1012.6
12 18.02 штиль 0 20 км 4/0
[Ac trans]
-13.5 -15.7 83 -14 -14 тепло 1014.8 1012.6
15 18.02 З 5-10
{11}
10 км 10/0
[Ac trans]
-9.2 -12.3 78 -17 -17 тепло 1014.2 1012.0 -9.2
18 18.02 З 3
{10}
10 км 10/0
[Ac trans]
-9.3 -13.8 70 -15 -15 тепло 1014.8 1012.6
21 18.02 З 4 10 км 6/0
[Ac trans Ci fib]
-11.0 -15.8 68 -18 -18 тепло 1015.4 1013.3
00 19.02 СЗ 3 10 км 8/0
[Ac trans Ci fib]
-11.9 -16.1 71 -18 -18 тепло 1016.9 1014.7
03 19.02 СЗ 3 4000 м слабый снег 10/0
[Ac As]
-13.8 -18.2 69 -20 -20 тепло 1018.5 1016.3 -13.8 0.0 61
06 19.02 СЗ 2 10 км слабый снег 8/0
[Ac trans Cs]
-15.3 -18.6 76 -20 -20 по сезону 1020.1 1017.9 -15.5
09 19.02 штиль 0 20 км {снег} 3/0
[Ac trans]
-12.6 -18.3 62 -13 -12 тепло 1022.5 1020.3
12 19.02 СВ 1 20 км {снег} 5/0
[Ac trans Ci fib]
-20.7 -23.2 80 -24 -24 по сезону 1024.6 1022.4
15 19.02 СВ 1 10 км 4/0
[Ac trans Ci fib]
-27.4 -30.6 74 -31 -31 опасность
обморожения
1026.1 1023.8 -12.3 0.0
18 19.02 СВ 1 10 км 4/0
[Ac trans Ci fib]
-29.6 -33.0 72 -34 -34 опасность
обморожения
1027.1 1024.8
21 19.02 штиль 0 10 км 3/0
[Ci fib]
-33.5 -37.7 66 -34 -34 опасность
обморожения
1027.8 1025.4
00 20.02 штиль 0 10 км ясно -33.7 -38.0 65 -34 -34 опасность
обморожения
1028.5 1026.1
03 20.02 штиль 0 10 км 5/0
[Ac lent Ci fib]
-34.4 -38.7 65 -34 -34 опасность
обморожения
1028.8 1026.4 -35.6 61
06 20.02 СВ 1 20 км 6/0
[Ac trans Ci fib]
-32.0 -36.2 66 -36 -36 опасность
обморожения
1029.1 1026.8
09 20.02 штиль 0 20 км ясно -21.7 -26.2 67 -22 -21 по сезону 1029.3 1027.0
12 20.02 СЗ 1 20 км ясно -27.9 -31.5 71 -32 -32 опасность
обморожения
1029.4 1027.1
15 20.02 СЗ 2 10 км ясно -29.3 -32.7 72 -37 -37 опасность
обморожения
1029.5 1027.2 -20.7
18 20.02 СЗ 1 10 км ясно -32.8 -36.9 67 -37 -37 опасность
обморожения
1029.8 1027.4
21 20.02 СВ 3 10 км ясно -30.5 -34.3 69 -40 -40 опасность
обморожения
1029.9 1027.5
00 21.02 СВ 2 10 км ясно -31.4 -35.4 68 -39 -39 опасность
обморожения
1029.9 1027.5
03 21.02 СВ 4 10 км 6/0
[Ac trans]
-31.6 -35.7 67 -43 -43 опасность
обморожения
1030.0 1027.7 -33.7 61
06 21.02 СВ 4 20 км позёмок {метель} 10/0
[Ac trans Ci fib]
-30.8 -34.9 67 -42 -42 опасность
обморожения
1029.9 1027.5
09 21.02 СВ 4 20 км {метель} 10/0
[Ci fib]
-29.9 -33.9 68 -41 -41 опасность
обморожения
1029.8 1027.4
12 21.02 СВ 6 10 км слабый снег {метель} 10/0
[Ac trans Cs]
-30.5 -34.6 67 -44 -44 опасность
обморожения
1029.5 1027.1
15 21.02 СВ 7-10
{12}
4000 м слабый снег {метель} 10/0
[Ac trans Cs]
-29.1 -33.1 68 -43 -43 опасность
обморожения
1029.5 1027.1 -29.1 0.0
18 21.02 СВ 6-10
{12}
4000 м слабый снег {метель} 10/0
[Ac trans Cs]
-29.4 -33.4 68 -43 -43 опасность
обморожения
1029.1 1026.8
21 21.02 СВ 7-10
{13}
4000 м слабый снег {метель} 10/0
[Ac trans Cs]
-28.0 -31.8 70 -42 -42 опасность
обморожения
1029.0 1026.6
00 22.02 СВ 7-11
{13}
4000 м слабый снег {метель} 10/0
[Ac trans Cs]
-28.2 -32.1 69 -42 -42 опасность
обморожения
1028.2 1025.8
03 22.02 СВ 8-13
{13}
4000 м слабый снег {метель} 10/0
[Ac trans Cs]
-27.6 -31.4 70 -42 -42 опасность
обморожения
1027.6 1025.2 -29.4 0.3 60
06 22.02 СВ 8-12
{14}
10 км позёмок {снег, метель} ясно -26.4 -30.1 71 -41 -41 опасность
обморожения
1027.4 1025.1
09 22.02 СВ 8-13
{13}
10 км позёмок {метель} 8/8 120 м
[St]
-24.9 -28.5 72 -39 -39 опасность
обморожения
1027.3 1025.0
12 22.02 СВ 7-11
{13}
10 км позёмок {метель} 10/10 150 м
[St]
-25.1 -28.6 72 -38 -38 опасность
обморожения
1027.0 1024.7
15 22.02 СВ 7-10
{13}
4000 м метель 9/3 120 м
[St Ac trans]
-25.9 -29.5 72 -39 -39 опасность
обморожения
1026.9 1024.6 -24.7 0.2
18 22.02 СВ 7-11
{13}
10 км сильный позёмок {метель} 8/0
[Ci fib]
-27.5 -31.3 70 -41 -41 опасность
обморожения
1027.3 1025.0
21 22.02 СВ 7-12
{13}
10 км сильный позёмок {метель} 10/0
[Ac trans Ci fib]
-26.8 -30.3 72 -40 -40 опасность
обморожения
1026.6 1024.3
00 23.02 СВ 7-10
{12}
10 км сильный позёмок {метель} 10/0
[Ac trans Ci fib]
-24.6 -28.1 73 -38 -38 опасность
обморожения
1026.3 1024.0
03 23.02 СВ 6-10
{11}
10 км сильный позёмок {метель} 10/3 600 м
[Sc diur, vesp Ac trans]
-22.5 -25.6 76 -34 -34 опасность
обморожения
1026.5 1024.2 -27.8 59
06 23.02 СВ 4
{11}
20 км {метель} 3/0
[Ci fib]
-24.3 -28.1 71 -34 -34 опасность
обморожения
1025.9 1023.6
09 23.02 СВ 4 10 км слабый снег 10/5 270 м
[Frnb As op]
-19.1 -22.4 75 -28 -28 по сезону 1024.7 1022.5
12 23.02 СВ 5 10 км слабый снег 10/5 330 м
[Frnb As op]
-17.7 -21.1 75 -27 -27 по сезону 1024.0 1021.8
15 23.02 СВ 6-10
{10}
4000 м слабый снег {метель} 10/8 330 м
[Frnb Ac As]
-18.6 -21.8 76 -29 -29 по сезону 1023.2 1020.9 -17.7 0.2
18 23.02 СВ 5
{10}
4000 м слабый снег {метель} 10/5 300 м
[Frnb Ac As]
-18.6 -21.5 78 -28 -28 по сезону 1022.9 1020.6
21 23.02 СВ 6
{11}
10 км позёмок {снег, метель} 8/3 600 м
[Sc Ac trans]
-19.5 -23.0 74 -30 -30 по сезону 1021.9 1019.6
00 24.02 СВ 6-12
{15}
10 км позёмок {снег, метель} 10/0
[Ac As]
-25.7 -29.6 70 -38 -38 опасность
обморожения
1023.0 1020.7
03 24.02 СВ 3
{14}
20 км {метель} 3/0
[Ci fib]
-25.6 -29.6 69 -34 -34 опасность
обморожения
1022.9 1020.6 -26.0 0.3 58
06 24.02 штиль 0 50 км ?/? -23.7 -28.2 66 -24 -24 по сезону 1025.4 1020.4
09 24.02 В 5 20 км 1/0
[Ac trans]
-24.9 -29.4 66 -36 -36 опасность
обморожения
1027.5 1020.2
12 24.02 СВ 6
{10}
20 км позёмок {метель} 4/0
[Ac trans Cs]
-27.5 -31.8 67 -40 -40 опасность
обморожения
1023.4 1021.1
15 24.02 СВ 1 10 км {метель} 3/0
[Ac trans Ci fib]
-28.8 -33.1 66 -33 -33 опасность
обморожения
1024.0 1021.7 -22.8
18 24.02 СВ 5 10 км позёмок {метель} 10/0
[Ac trans Cs]
-27.5 -31.6 68 -39 -39 опасность
обморожения
1024.6 1022.3
21 24.02 СВ 5-10
{12}
4000 м слабый снег {метель} 10/0
[Ac trans Cs]
-29.1 -33.5 66 -41 -41 опасность
обморожения
1026.5 1024.2
00 25.02 СВ 5
{12}
10 км позёмок {снег, метель} 8/0
[Cs]
-28.9 -33.1 67 -41 -41 опасность
обморожения
1028.4 1026.1
03 25.02 СВ 3 20 км {метель} 3/0
[Ci fib]
-30.0 -34.1 67 -40 -40 опасность
обморожения
1030.3 1027.9 -30.0 0.0 60

 

Местоположение метеостанции Салехард (Ямало-Ненецкий АО, Россия): широта 66.53 долгота 66.67 высота над уровнем моря 16 м.

В архиве по умолчанию представлена погода в Салехарде за последнюю неделю. Архивные данные за месяц целиком и за предыдущие месяцы, начиная с января 2011 года, Вы можете получить, выбрав интересующий диапазон дат из раскрывающегося списка и нажав кнопку "Ввод!".

Внимание! Время в таблицах - всемирное. Для получения местного времени необходимо прибавить поправку, которая в Салехарде равна 5 ч.

Смотрите также архив погоды в соседних городах и на ближайших метеорологических станциях:

Погода в Харпе (Ямало-Ненецкий АО, Россия) (49 км)
Погода в Белоярске (Ямало-Ненецкий АО, Россия) (75 км)
Погода в Питляре (Ямало-Ненецкий АО, Россия) (85 км)
Погода в Полуе (Ямало-Ненецкий АО, Россия) (106 км)
Погода в Елецкой (Коми, Россия) (128 км)
Погода в Мужах (Ямало-Ненецкий АО, Россия) (155 км)
Погода в Воркуте (Коми, Россия) (158 км)
Погода в Петруни (Коми, Россия) (262 км)
Погода в Inari Angeli (Финляндия) (267 км)
Погода в Ныде (Ямало-Ненецкий АО, Россия) (277 км)

Пояснения к столбцам:

Ветер - указаны скорость ветра в м/с - средняя за 10 мин, порывы в срок и между сроками (в фигурных скобках) и направление, откуда дует ветер: С - северный, СВ - северо-восточный, В - восточный, ЮВ - юго-восточный, Ю - южный, ЮЗ - юго-западный, З - западный, СЗ - северо-западный.
Видимость - горизонтальная дальность видимости в метрах или километрах. При видимости от 1 до 10 км при отсутствии осадков обычно наблюдается дымка, при ухудшении видимости до 1 км и менее - туман. В сухую погоду видимость может ухудшаться дымом, пылью или мглою.
Явления - указаны атмосферные явления, наблюдавшиеся в срок или в последний час перед сроком; фигурными скобками обозначены явления, наблюдавшиеся между сроками (за 1-3 часа до срока); квадратными скобками обозначены град или гололедные отложения с указанием их диаметра в мм.
Облачность - указаны через наклонную черту общая и нижняя облачность в баллах и высота нижней границы облаков в метрах; квадратными скобками обозначены формы облаков: Ci - перистые, Cs - перисто-слоистые, Cc - перисто-кучевые, Ac - высококучевые, As - высокослоистые, Sc - слоисто-кучевые, Ns - слоисто-дождевые, Cu - кучевые, Cb - кучево-дождевые. Подробнее классификацию облаков см. в Атласе облаков (PDF).
T - Температура воздуха - температура, измеренная на высоте 2 м над землей.
Td - Температура точки росы - температура, при понижении до которой содержащийся в воздухе водяной пар достигнет насыщения.
f - Относительная влажность воздуха - влажноcть воздуха, измеренная на высоте 2 м над землей.
Te - Эффективная температура - температура, которую ощущает одетый по сезону человек в тени. Характеристика душности погоды. При расчете учитывается влияние влажности воздуха и скорости ветра на теплоощущения человека.
Tes - Эффективная температура на солнце - температура, которую ощущает человек, с поправкой на солнечный нагрев. Характеристика знойности погоды. Зависит от высоты солнца над горизонтом, облачности и скорости ветра. Ночью, в пасмурную погоду, а также при ветре 12 м/с и более поправка равна нулю.
P - Атмосферное давление - приведенное к уровню моря атмосферное давление.
Po - Атмосферное давление - измеренное на уровне метеостанции атмосферное давление.
Tmin - Минимальная температура - минимум температуры воздуха на высоте 2 м над землей.
Tmax - Максимальная температура - максимум температуры воздуха на высоте 2 м над землей.
R - Количество осадков - Количество выпавших осадков за период времени, мм. При наведении курсора мыши на число - период времени, за который выпало указанное количество осадков.
R24 - Количество осадков - Количество выпавших осадков за 24 часа, мм.
S - Снежный покров - Высота снежного покрова, см. При наведении курсора мыши на число - состояние снежного покрова и степень покрытия местности в баллах.